Flag for Poland Weather past 2 weeks in Lublin, Poland

Now
81 °F

Passing clouds.


Feels Like: 81 °F
Forecast: 63 / 85 °F
Wind: No wind

Location: Lublin Radawiec

Current Time: Jul 7, 2015 at 8:15:22 PM

Latest Report: Jul 7, 2015 at 7:00 PM


Visibility: 19 mi

Pressure: 29.89 "Hg

Humidity: 42%

Dew point: 56 °F

Location of LublinLocation

Historic Weather in Lublin — Graph

°F

Lublin temperature yesterday

Maximum temperature yesterday: 90 °F (at 2:00 PM)
Minimum temperature yesterday: 62 °F (at 5:00 AM)
Average temperature yesterday: 74 °F

Past Weeks' High & Low Weather Summary

 TemperatureHumidityPressure
High90 °F (Jul 6, 2:00 PM)97% (Jun 30, 12:00 AM)30.42 "Hg (Jun 30, 12:00 AM)
Low49 °F (Jun 24, 2:00 AM)32% (Jul 5, 4:00 PM)29.78 "Hg (Jun 23, 11:00 AM)
Average66 °F68%30.11 "Hg
* Reported Jun 22 8:00 PM — Jul 7 7:00 PM, Lublin, Weather by CustomWeather, © 2015

Note: Actual official high and low records may vary slightly from our data, if they occured in-between our weather recording intervals... More about our weather records

Advertising

Lublin weather history for previous 24 hours

 ConditionsComfort  
Time TempWeatherWind HumidityBarometerVisibility
7:00 PM
Tue, Jul 7
81 °FPassing clouds.No wind42%29.89 "Hg19 mi
6:00 PM83 °FPassing clouds.2 mph36%29.90 "Hg22 mi
5:00 PM83 °FSunny.2 mph37%29.92 "Hg19 mi
4:00 PM82 °FSunny.2 mph38%29.94 "Hg19 mi
3:00 PM81 °FPassing clouds.2 mph39%29.96 "Hg19 mi
2:00 PM79 °FPassing clouds.3 mph38%29.99 "Hg22 mi
1:00 PM77 °FPassing clouds.5 mph43%30.01 "Hg19 mi
12:00 PM76 °FPassing clouds.2 mph44%30.03 "Hg17 mi
11:00 AM75 °FPassing clouds.2 mph47%30.04 "Hg17 mi
10:00 AM74 °FPassing clouds.2 mph51%30.05 "Hg22 mi
9:00 AM72 °FPassing clouds.2 mph64%30.06 "Hg14 mi
8:00 AM69 °FPassing clouds.1 mph73%30.08 "Hg11 mi
7:00 AM65 °FSunny.1 mph83%30.09 "Hg9 mi
6:00 AM61 °FFog.2 mph97%30.09 "Hg5 mi
4:00 AM58 °FFog.No wind95%30.08 "Hg5 mi
3:00 AM60 °FClear.1 mph96%30.09 "Hg6 mi
2:00 AM62 °FClear.1 mph91%30.08 "Hg7 mi
1:00 AM65 °FClear.3 mph88%30.07 "Hg11 mi
12:00 AM68 °FPassing clouds.3 mph83%30.05 "Hg10 mi
10:00 PM
Mon, Jul 6
72 °FPassing clouds.3 mph79%30.02 "Hg11 mi
9:00 PM73 °FOvercast.2 mph83%30.00 "Hg7 mi
8:00 PM76 °FPassing clouds.2 mph78%29.98 "Hg6 mi
Weather by CustomWeather, © 2015

See weather overviewHow to use our weather pages